Weather History for Asheboro, NC

Change the Weather History Date:

Thursday, January 16, 2014

  Actual Average Record
Temperature  
Mean Temperature 34 °F -  
Max Temperature 42 °F 49 °F 72 °F (1974)
Min Temperature 27 °F 28 °F 3 °F (1972)
Degree Days  
Heating Degree Days 30    
Moisture  
Dew Point 23 °F    
Average Humidity 64    
Maximum Humidity 92    
Minimum Humidity 36    
Precipitation  
Precipitation 0.00 in - - ()
Sea Level Pressure  
Sea Level Pressure 30.00 in    
Wind  
Wind Speed 3 mph (West)    
Max Wind Speed 10 mph    
Max Gust Speed 17 mph    
Visibility 10 miles    
Events      
Averages and records for this station are not official NWS values.
T = Trace of Precipitation, MM = Missing Value Source: NWS Daily Summary

Daily Weather History Graph

Daily Weather History Graph

Search for Another Location

Airport:

Trip Planner

Search our weather history database for the weather conditions in past years. The results will help you decide how hot, cold, wet, or windy it might be!

Date:

Astronomy

Jan. 16, 2014 Rise Set
Actual Time 7:28 AM EST 5:30 PM EST
Civil Twilight 7:00 AM EST 5:58 PM EST
Nautical Twilight 6:29 AM EST 6:29 PM EST
Astronomical Twilight 5:58 AM EST 7:00 PM EST
Moon 6:17 PM EST (1/16) 7:23 AM EST (1/16)
Length of Visible Light 10h 57m
Length of Day
10h 02m
Full, 100% of the Moon is Illuminated
Jan 16
Full
Jan 24
Last Quarter
Jan 30
New
Feb 6
First Quarter
Feb 14
Full

Hourly Weather History & Observations

Time (EST) Temp. Windchill Dew Point Humidity Pressure Visibility Wind Dir Wind Speed Gust Speed Precip Events Conditions
12:15 AM 35.8 °F 29.4 °F 30.6 °F 81% 29.97 in 10.0 mi North 8.1 mph - N/A   Overcast
12:35 AM 35.6 °F 29.9 °F 30.4 °F 81% 29.97 in 10.0 mi North 6.9 mph - N/A   Overcast
12:55 AM 35.6 °F 31.7 °F 30.7 °F 82% 29.96 in 10.0 mi North 4.6 mph - N/A   Overcast
1:15 AM 35.1 °F 32.2 °F 30.6 °F 84% 29.96 in 10.0 mi NNW 3.5 mph - N/A   Overcast
1:35 AM 35.1 °F 32.2 °F 30.6 °F 84% 29.96 in 10.0 mi NNW 3.5 mph - N/A   Overcast
1:55 AM 34.7 °F 31.8 °F 30.2 °F 84% 29.96 in 10.0 mi NNW 3.5 mph - N/A   Overcast
2:15 AM 34.3 °F - 30.4 °F 85% 29.96 in 10.0 mi Calm Calm - N/A   Overcast
2:35 AM 34.3 °F - 30.7 °F 87% 29.97 in 10.0 mi Calm Calm - N/A   Overcast
2:55 AM 34.0 °F - 30.4 °F 87% 29.97 in 10.0 mi Calm Calm - N/A   Overcast
3:15 AM 34.0 °F - 30.4 °F 87% 29.99 in 10.0 mi Calm Calm - N/A   Overcast
3:35 AM 33.6 °F - 30.2 °F 87% 29.98 in 10.0 mi Calm Calm - N/A   Overcast
3:55 AM 32.9 °F - 30.4 °F 90% 29.97 in 10.0 mi Calm Calm - N/A   Overcast
4:15 AM 32.4 °F 29.1 °F 29.5 °F 89% 29.98 in 10.0 mi NNW 3.5 mph - N/A   Mostly Cloudy
4:35 AM 32.0 °F - 29.1 °F 89% 29.98 in 10.0 mi Calm Calm - N/A   Clear
4:55 AM 31.3 °F - 28.4 °F 89% 29.98 in 10.0 mi Calm Calm - N/A   Clear
5:15 AM 31.1 °F 27.7 °F 27.7 °F 87% 29.99 in 10.0 mi NNW 3.5 mph - N/A   Clear
5:35 AM 30.2 °F - 26.8 °F 87% 29.99 in 10.0 mi Calm Calm - N/A   Clear
5:55 AM 30.0 °F - 26.1 °F 85% 29.99 in 10.0 mi Calm Calm - N/A   Clear
6:15 AM 29.5 °F - 24.8 °F 83% 30.00 in 10.0 mi Calm Calm - N/A   Clear
6:35 AM 29.3 °F - 24.3 °F 81% 30.01 in 10.0 mi Calm Calm - N/A   Clear
6:55 AM 29.1 °F - 23.9 °F 81% 30.01 in 10.0 mi Calm Calm - N/A   Clear
7:15 AM 27.5 °F - 24.6 °F 89% 30.02 in 10.0 mi Calm Calm - N/A   Clear
7:35 AM 27.1 °F - 24.8 °F 91% 30.04 in 10.0 mi Calm Calm - N/A   Clear
7:55 AM 27.0 °F - 24.8 °F 92% 30.04 in 10.0 mi Calm Calm - N/A   Clear
8:15 AM 27.1 °F - 23.7 °F 87% 30.04 in 10.0 mi Calm Calm - N/A   Clear
8:35 AM 28.4 °F - 24.4 °F 85% 30.05 in 10.0 mi Calm Calm - N/A   Clear
8:55 AM 30.6 °F 27.1 °F 20.8 °F 67% 30.05 in 10.0 mi NNW 3.5 mph - N/A   Clear
9:15 AM 31.1 °F 26.4 °F 20.1 °F 64% 30.06 in 10.0 mi North 4.6 mph - N/A   Clear
9:35 AM 32.0 °F 28.7 °F 20.3 °F 62% 30.05 in 10.0 mi North 3.5 mph - N/A   Clear
9:55 AM 32.5 °F 29.3 °F 20.3 °F 61% 30.05 in 10.0 mi North 3.5 mph - N/A   Clear
10:15 AM 33.6 °F 30.6 °F 18.9 °F 55% 30.04 in 10.0 mi NNW 3.5 mph - N/A   Clear
10:35 AM 34.7 °F 30.6 °F 19.6 °F 54% 30.04 in 10.0 mi WNW 4.6 mph - N/A   Clear
10:55 AM 35.6 °F 32.8 °F 18.5 °F 50% 30.05 in 10.0 mi North 3.5 mph - N/A   Clear
11:15 AM 36.1 °F - 18.3 °F 48% 30.04 in 10.0 mi Calm Calm - N/A   Clear
11:35 AM 36.7 °F - 18.5 °F 48% 30.04 in 10.0 mi Calm Calm - N/A   Clear
11:55 AM 37.4 °F - 16.9 °F 43% 30.02 in 10.0 mi Calm Calm - N/A   Clear
12:15 PM 38.1 °F 35.7 °F 15.8 °F 40% 30.01 in 10.0 mi West 3.5 mph - N/A   Clear
12:35 PM 39.2 °F 35.9 °F 17.4 °F 41% 30.00 in 10.0 mi West 4.6 mph - N/A   Clear
12:55 PM 39.2 °F 35.9 °F 17.4 °F 41% 29.99 in 10.0 mi WSW 4.6 mph - N/A   Clear
1:15 PM 39.4 °F - 16.9 °F 40% 29.97 in 10.0 mi Calm Calm - N/A   Clear
1:35 PM 40.8 °F 36.2 °F 16.5 °F 37% 29.97 in 10.0 mi SW 6.9 mph - N/A   Clear
1:55 PM 41.4 °F 35.7 °F 16.7 °F 37% 29.96 in 10.0 mi West 9.2 mph - N/A   Clear
2:15 PM 41.4 °F 37.6 °F 17.2 °F 38% 29.96 in 10.0 mi SW 5.8 mph - N/A   Clear
2:35 PM 41.0 °F 34.7 °F 15.8 °F 36% 29.96 in 10.0 mi West 10.4 mph 17.3 mph N/A   Clear
2:55 PM 41.0 °F 35.2 °F 15.6 °F 36% 29.95 in 10.0 mi WNW 9.2 mph - N/A   Clear
3:15 PM 41.4 °F 38.4 °F 17.6 °F 38% 29.95 in 10.0 mi WSW 4.6 mph - N/A   Clear
3:35 PM 41.5 °F 36.4 °F 16.5 °F 36% 29.95 in 10.0 mi West 8.1 mph - N/A   Clear
3:55 PM 41.9 °F 39.0 °F 17.8 °F 38% 29.96 in 10.0 mi WSW 4.6 mph - N/A   Clear
4:15 PM 41.9 °F 38.2 °F 17.4 °F 37% 29.96 in 10.0 mi SW 5.8 mph - N/A   Clear
4:35 PM 42.1 °F 37.1 °F 17.6 °F 37% 29.97 in 10.0 mi SSW 8.1 mph - N/A   Clear
4:55 PM 41.5 °F 39.6 °F 17.2 °F 38% 29.97 in 10.0 mi WSW 3.5 mph - N/A   Clear
5:15 PM 41.0 °F 39.0 °F 18.7 °F 41% 29.98 in 10.0 mi SW 3.5 mph - N/A   Clear
5:35 PM 40.1 °F - 18.5 °F 42% 29.99 in 10.0 mi Calm Calm - N/A   Clear
5:55 PM 37.2 °F - 23.9 °F 59% 29.99 in 10.0 mi Calm Calm - N/A   Clear
6:15 PM 36.1 °F - 21.7 °F 56% 30.00 in 10.0 mi Calm Calm - N/A   Clear
6:35 PM 34.7 °F - 22.1 °F 60% 30.00 in 10.0 mi Calm Calm - N/A   Clear
6:55 PM 34.0 °F - 20.5 °F 58% 30.01 in 10.0 mi Calm Calm - N/A   Clear
7:15 PM 33.4 °F - 22.3 °F 64% 30.01 in 10.0 mi Calm Calm - N/A   Clear
7:35 PM 34.0 °F - 22.5 °F 63% 30.01 in 10.0 mi Calm Calm - N/A   Clear
7:55 PM 33.8 °F - 22.1 °F 62% 30.01 in 10.0 mi Calm Calm - N/A   Clear
8:15 PM 33.3 °F - 22.6 °F 65% 30.01 in 10.0 mi Calm Calm - N/A   Clear
8:35 PM 33.1 °F - 22.8 °F 66% 30.01 in 10.0 mi Calm Calm - N/A   Clear
8:55 PM 33.4 °F - 22.3 °F 64% 30.02 in 10.0 mi Calm Calm - N/A   Clear
9:15 PM 33.8 °F - 22.6 °F 64% 30.02 in 10.0 mi Calm Calm - N/A   Clear
9:35 PM 32.5 °F - 24.3 °F 72% 30.03 in 10.0 mi Calm Calm - N/A   Clear
9:55 PM 35.2 °F 31.2 °F 22.1 °F 59% 30.02 in 10.0 mi South 4.6 mph - N/A   Clear
10:15 PM 36.0 °F 32.1 °F 21.9 °F 57% 30.03 in 10.0 mi South 4.6 mph - N/A   Clear
10:35 PM 36.5 °F 31.8 °F 21.4 °F 54% 30.03 in 10.0 mi SSW 5.8 mph - N/A   Clear
10:55 PM 36.5 °F 32.7 °F 21.0 °F 54% 30.02 in 10.0 mi SSW 4.6 mph - N/A   Clear
11:15 PM 35.8 °F 31.9 °F 21.2 °F 55% 30.03 in 10.0 mi SSW 4.6 mph - N/A   Clear
11:35 PM 35.8 °F 30.9 °F 21.6 °F 56% 30.04 in 10.0 mi SSW 5.8 mph - N/A   Clear
11:55 PM 35.1 °F 30.1 °F 21.6 °F 58% 30.04 in 10.0 mi SSW 5.8 mph - N/A   Clear